Location: Frattocchie
(41.7667°N, 12.6167°E)
Time: 21:57:19
(UTC+00:00)

Daily predictions for brighter satellites

Satellite Brightness Start Highest point End
(mag) Time Altitude Azimuth Time Altitude Azimuth Time Altitude Azimuth
ARGOS 4.2 17:24:09 10° ESE 17:28:22 24° ENE 17:32:37 10° NNE
NOSS 3-2 (A) 4.3 17:23:10 10° NNW 17:30:34 55° NE 17:38:51 10° SE
CZ-2C R/B 4.2 17:30:32 10° NE 17:33:47 16° E 17:37:01 10° SE
Cosmos 2151 Rocket 4.3 17:33:36 10° SSE 17:37:36 33° E 17:41:37 10° NNE
Meteor 1-21 4.4 17:32:45 10° NNW 17:38:22 80° W 17:43:57 10° S
Lacrosse 5 rocket 4.0 17:38:38 10° NNW 17:39:52 11° N 17:41:07 10° NNE
Cosmos 1975 Rocket 3.2 17:37:17 10° N 17:41:37 77° W 17:45:55 10° S
HJ-1C 4.2 17:40:09 10° SE 17:43:03 29° ENE 17:45:59 10° N
Shenzhou-11 Module 2.2 17:48:42 10° SW 17:50:36 28° SSE 17:51:33 19° ESE
COSMO-SKYMED 1 3.9 17:47:00 10° N 17:51:09 44° WNW 17:55:16 10° SW
Ariane Rocket 4.2 17:47:53 11° ESE 17:51:35 22° ENE 17:55:26 10° NNE
H-2A R/B 2.2 17:47:31 10° SE 17:52:17 48° ENE 17:57:12 10° N
Nadezhda 4 Rocket 4.2 17:48:40 10° N 17:54:31 45° ENE 18:00:20 10° SSE
Exosat Rocket 3.9 17:51:19 10° S 17:56:36 41° ESE 18:01:16 10° NE
Cosmos 2263 Rocket 4.5 17:53:18 10° WSW 17:57:53 26° NW 18:02:30 10° N
USA 116 3.7 17:57:39 10° NNE 18:01:25 88° ESE 18:05:40 10° SSW
Cosmos 1844 Rocket 2.6 17:56:23 10° SSW 18:01:56 81° ESE 18:07:32 10° NNE
Cosmos 2278 Rocket 3.9 18:03:00 10° SE 18:10:00 - ENE 18:03:58 13° SE
Cosmos 1707 3.0 18:02:53 10° NNW 18:06:43 69° W 18:10:30 10° S
Cosmos 1626 4.1 18:06:02 10° NE 18:07:28 14° ENE 18:07:28 14° ENE
CZ-2C R/B 3.2 18:05:56 10° WSW 18:08:32 18° SSW 18:10:59 10° SSE
NOSS 3-2 (C) 4.2 18:01:21 10° NNW 18:08:51 60° NE 18:16:08 14° SE
Cosmos 1844 3.6 18:03:42 10° SSW 18:09:23 75° ESE 18:15:01 10° NNE
Cosmos 2034 Rocket 4.0 18:03:06 10° S 18:09:23 67° E 18:15:39 10° NNE
NOSS 3-4 (A) 3.6 18:05:23 10° S 18:10:55 46° ESE 18:16:45 10° NE
NOSS 3-4 (C) 3.6 18:05:30 10° S 18:11:02 45° ESE 18:16:51 10° NE
USA 186 2.9 18:11:03 25° E 18:11:25 25° ENE 18:14:11 10° NNE
ISS -1.4 18:09:25 10° WNW 18:11:54 19° NNW 18:14:23 10° NE
Meteor 2-5 Rocket 4.4 18:09:31 10° N 18:14:42 35° ENE 18:18:15 18° SE
Cosmos 1300 Rocket 4.1 18:13:53 10° SSW 18:18:14 62° W 18:22:39 10° N
Okean 1 Rocket 3.3 18:17:10 10° SSE 18:21:26 45° E 18:25:43 10° NNE
Resurs 01 Rocket 3.7 18:25:52 13° NE 18:25:52 13° NE 18:27:05 10° NE
CENTAUR R/B 3.2 18:19:50 10° NNW 18:28:00 73° NE 18:34:46 19° SE
Cosmos 1833 Rocket 3.9 18:24:37 10° N 18:29:01 23° NE 18:30:12 21° ENE
CSL-04 Rocket 4.1 18:24:57 10° S 18:30:20 66° WSW 18:35:51 10° NNW
Cosmos 1766 3.4 18:28:42 10° S 18:32:28 49° E 18:36:18 10° NNE
Okean 2 Rocket 4.4 18:28:36 10° SSW 18:32:51 42° WNW 18:37:06 10° N
YAOGAN 1 4.3 18:29:15 10° SSW 18:33:08 33° W 18:37:05 10° NNW
ATLAS 2AS CENTAUR R/B 3.0 18:25:32 10° SSW 18:33:18 64° ESE 18:41:07 10° NE
Cosmos 1025 Rocket 4.0 18:31:52 10° NNW 18:36:07 50° W 18:40:22 10° SSW
Cosmos 1634 Rocket 4.1 18:31:17 10° SSE 18:37:09 48° E 18:43:03 10° NNE
ATLAS 3B R/B 3.6 18:33:50 10° NNW 18:39:59 34° NE 18:42:34 26° E
SPOT 3 Rocket 4.5 18:40:10 28° ENE 18:40:23 28° ENE 18:44:43 10° N
Abrixas rocket 2.6 18:39:47 10° NW 18:42:11 44° N 18:42:11 44° N
CREW DRAGON DEMO-1 DEB 3.4 18:41:39 10° NW 18:44:16 49° N 18:44:16 49° N
Cosmos 1125 Rocket 4.2 18:40:31 10° SW 18:45:43 57° WNW 18:50:59 10° NNE
Cosmos 1536 Rocket 4.3 18:41:33 10° NNW 18:45:55 54° W 18:50:16 10° S
SJ-6B 2.7 18:48:31 57° ENE 18:48:31 57° ENE 18:52:05 10° N
CZ-4 R/B 4.4 18:48:06 10° SW 18:50:56 17° W 18:53:45 10° NW
Cosmos 2285 Rocket 4.3 18:50:07 10° SSW 18:56:22 67° WNW 19:02:43 10° NNE
Cosmos 2195 Rocket 4.3 18:50:10 10° N 18:56:25 75° E 19:00:07 26° SSE
USA 238 DEB 4.4 18:49:57 10° NW 18:57:04 57° WSW 19:03:15 15° SSE
USA 238 4.4 18:50:03 10° NW 18:57:10 58° WSW 19:03:18 15° SSE
Cosmos 1627 Rocket 4.4 18:51:39 10° N 18:58:03 70° E 19:01:23 30° SSE
Cosmos 1674 3.4 18:54:32 10° NNW 18:58:16 52° W 19:00:17 24° SSW
Cosmos 2026 Rocket 4.0 18:52:57 10° N 18:59:19 68° E 19:02:16 33° SSE
Cosmos 1092 Rocket 3.9 18:53:16 10° N 18:59:28 88° E 19:04:17 18° S
Cosmos 1428 Rocket 4.3 19:01:36 10° N 19:07:51 74° E 19:10:06 42° SSE
ARGOS 4.1 19:03:13 10° S 19:08:20 46° W 19:13:30 10° NNW
Cosmos 1340 Rocket 4.4 19:15:11 26° N 19:15:11 26° N 19:17:01 10° N
Cosmos 2279 Rocket 4.0 19:12:58 55° ESE 19:13:40 58° E 19:19:47 10° NNE
CZ-2C R/B 2.9 19:08:59 10° N 19:14:33 72° WNW 19:20:09 10° SSW
Cosmos 1733 3.9 19:13:48 41° SW 19:14:43 52° W 19:18:29 10° N
MOS 1 4.3 19:13:05 35° S 19:15:37 79° WSW 19:21:22 10° NNW
Lacrosse 5 rocket 3.7 19:18:01 10° NNW 19:20:42 16° NNE 19:20:42 16° NNE
Cosmos 2082 Rocket 3.3 19:17:11 10° N 19:21:17 31° NE 19:21:17 31° NE
DMSP B5D2-2 4.4 19:19:07 10° N 19:24:22 67° WNW 19:29:35 10° SSW
BREEZE-M DEB (TANK) 4.1 19:20:41 10° WNW 19:24:38 54° SSW 19:27:36 37° SSE
OBJECT-B 3.6 19:28:48 15° NNW 19:28:48 15° NNW 19:29:25 10° NNW
Cosmos 2142 Rocket 4.3 19:24:37 36° S 19:27:23 86° E 19:33:37 10° N
Ariane Rocket 3.9 19:28:06 30° SSW 19:30:12 46° W 19:35:06 10° NNW
H-2A R/B 4.4 19:28:25 10° SW 19:31:59 20° W 19:35:39 10° NW
Milstar 3 Cent rocket 3.9 19:29:03 10° SW 19:32:39 20° SSW 19:32:39 20° SSW
USA 234 4.0 19:38:14 36° S 19:38:14 36° S 19:42:07 10° SSW
Cosmos 1626 4.3 19:40:07 10° NNW 19:42:02 24° NW 19:42:02 24° NW
COSMOS 2406 3.4 19:42:38 10° NNW 19:47:56 68° W 19:47:56 68° W
ISS -0.4 19:47:27 10° NW 19:47:46 11° NNW 19:47:46 11° NNW
Cosmos 2278 Rocket 2.9 19:44:11 10° SSW 19:51:32 45° N 19:55:28 10° NNE
Lacrosse 4 Rocket 3.8 19:51:49 10° NNW 19:52:52 17° NNW 19:52:52 17° NNW
Resurs 01 Rocket 3.6 20:03:26 25° NNW 20:03:26 25° NNW 20:05:22 10° NNW
Cosmos 1833 Rocket 3.6 20:07:48 10° NNW 20:11:54 45° WNW 20:11:54 45° WNW
ATLAS 2AS CENTAUR R/B 4.3 20:17:31 10° WSW 20:24:47 37° NW 20:31:59 10° NNE
ATLAS 3B R/B 3.3 20:24:15 10° NW 20:29:50 53° WNW 20:29:50 53° WNW
Cosmos 2082 Rocket 4.4 21:01:12 10° NW 21:03:08 20° NW 21:03:08 20° NW
